Location: Vancouver
(49.2500°N, 123.1330°W)
Time: 12:19:03
(UTC-08:00)

Cosmos 676 Rocket - Visible Passes

Search period start: 03 March 2015 00:00
Search period end: 13 March 2015 01:00
Orbit: 756 x 784 km, 74.0° (Epoch: 01 March)

Date Brightness Start Highest point End Pass type
(mag) Time Alt. Az. Time Alt. Az. Time Alt. Az.
03 Mar 4.6 19:45:16 10° N 19:50:03 36° NE 19:50:56 34° ENE visible
03 Mar 5.4 21:27:24 10° NW 21:31:16 35° W 21:31:16 35° W visible
04 Mar 5.2 19:09:08 10° N 19:13:23 25° NE 19:15:43 19° E visible
04 Mar 4.3 20:50:48 10° NNW 20:55:58 61° WSW 20:56:04 61° WSW visible
05 Mar 5.6 18:33:11 10° N 18:36:36 18° NE 18:40:08 10° E visible
05 Mar 3.9 20:14:21 10° NNW 20:19:36 86° ENE 20:20:56 52° SSE visible
05 Mar 6.4 21:58:06 10° WNW 22:01:04 15° W 22:01:17 15° W visible
06 Mar 4.1 19:38:00 10° NNW 19:43:09 55° ENE 19:45:54 27° SE visible
06 Mar 5.9 21:20:47 10° NW 21:24:57 24° W 21:26:15 21° WSW visible
07 Mar 4.6 19:01:47 10° N 19:06:35 37° NE 19:10:58 12° ESE visible
07 Mar 5.3 20:43:56 10° NW 20:48:45 37° WSW 20:51:20 23° SSW visible
08 Mar 4.5 21:07:19 10° NNW 21:12:29 60° WSW 21:16:33 16° S visible
09 Mar 4.0 20:30:52 10° NNW 20:36:08 87° ENE 20:41:24 10° SSE visible
09 Mar 6.7 22:14:41 10° WNW 22:17:35 15° W 22:20:16 10° SW visible
10 Mar 4.1 19:54:31 10° NNW 19:59:40 57° ENE 20:04:52 10° SE visible
10 Mar 6.2 21:37:19 10° NW 21:41:27 23° W 21:45:30 10° SSW visible
11 Mar 5.5 21:00:28 10° NW 21:05:16 37° WSW 21:10:02 10° SSW visible
12 Mar 4.6 20:23:51 10° NNW 20:29:00 58° WSW 20:34:09 10° S visible
